PY3MO-13 Weather Reports


time (UTC)temp
C
wind
direction
speed
KPH
gust
KPH
rain 1hr
cm
rain 24hr
cm
rain mn
cm
humidity
%
barometer
mb
20260507203713 24 339 6.4 11.3 0.00 0.00 0.00 56 1005.5
20260507203506 24 348 3.2 11.3 0.00 0.00 0.00 56 1005.5
20260507203211 24 323 3.2 11.3 0.00 0.00 0.00 56 1005.5
20260507203005 24 317 9.7 11.3 0.00 0.00 0.00 56 1005.4
20260507202711 24 308 1.6 11.3 0.00 0.00 0.00 55 1005.4
20260507202505 25 303 6.4 11.3 0.00 0.00 0.00 55 1005.4
20260507202211 25 314 6.4 11.3 0.00 0.00 0.00 54 1005.4
20260507202007 25 306 3.2 4.8 0.00 0.00 0.00 54 1005.4
20260507201713 25 306 0.0 4.8 0.00 0.00 0.00 54 1005.4
20260507201506 25 326 1.6 9.7 0.00 0.00 0.00 54 1005.4
20260507201211 25 300 0.0 16.1 0.00 0.00 0.00 54 1005.2
20260507201006 25 303 0.0 16.1 0.00 0.00 0.00 54 1005.2
20260507200711 25 290 4.8 16.1 0.00 0.00 0.00 53 1005.4
20260507200505 25 274 12.9 16.1 0.00 0.00 0.00 52 1005.3
20260507200210 26 275 4.8 11.3 0.00 0.00 0.00 52 1005.3
20260507200007 26 253 3.2 11.3 0.00 0.00 0.00 51 1005.3
20260507195712 26 258 4.8 14.5 0.00 0.00 0.00 51 1005.3
20260507195506 26 256 8.0 14.5 0.00 0.00 0.00 51 1005.3
20260507195212 27 252 4.8 14.5 0.00 0.00 0.00 50 1005.4
20260507195006 27 261 6.4 14.5 0.00 0.00 0.00 50 1005.3
20260507194711 27 269 6.4 12.9 0.00 0.00 0.00 50 1005.5
20260507194507 27 290 9.7 12.9 0.00 0.00 0.00 50 1005.3
20260507194213 27 313 6.4 12.9 0.00 0.00 0.00 51 1005.4
20260507194006 26 310 3.2 12.9 0.00 0.00 0.00 51 1005.5
20260507193711 26 290 8.0 14.5 0.00 0.00 0.00 52 1005.6
20260507193506 26 277 4.8 14.5 0.00 0.00 0.00 52 1005.4
20260507193211 25 269 4.8 14.5 0.00 0.00 0.00 53 1005.5
20260507193005 25 263 8.0 19.3 0.00 0.00 0.00 53 1005.4
20260507192711 25 242 6.4 19.3 0.00 0.00 0.00 53 1005.6
20260507192505 25 250 4.8 19.3 0.00 0.00 0.00 53 1005.5
20260507192007 25 259 6.4 19.3 0.00 0.00 0.00 53 1005.4
20260507191712 25 286 6.4 19.3 0.00 0.00 0.00 52 1005.3
20260507191506 25 300 8.0 19.3 0.00 0.00 0.00 52 1005.3
20260507191005 25 317 4.8 14.5 0.00 0.00 0.00 52 1005.4
20260507190505 25 288 4.8 27.4 0.00 0.00 0.00 52 1005.3
20260507190213 25 264 8.0 27.4 0.00 0.00 0.00 52 1005.4
20260507190007 25 263 6.4 27.4 0.00 0.00 0.00 51 1005.3
20260507185714 25 252 17.7 27.4 0.00 0.00 0.00 50 1005.3
20260507185506 25 248 12.9 25.7 0.00 0.00 0.00 50 1005.4
20260507185211 25 270 3.2 24.1 0.00 0.00 0.00 50 1005.1
20260507185006 25 268 6.4 24.1 0.00 0.00 0.00 50 1004.9
20260507184712 25 230 12.9 35.4 0.00 0.00 0.00 50 1005.1
20260507184505 25 257 8.0 35.4 0.00 0.00 0.00 50 1005.1
20260507184211 26 243 14.5 35.4 0.00 0.00 0.00 50 1005.2
20260507184007 26 226 11.3 35.4 0.00 0.00 0.00 50 1005.0
20260507183712 25 277 8.0 24.1 0.00 0.00 0.00 50 1005.5
20260507183506 25 265 14.5 24.1 0.00 0.00 0.00 50 1005.1
20260507183212 25 288 14.5 30.6 0.00 0.00 0.00 50 1004.9
20260507183006 25 301 9.7 30.6 0.00 0.00 0.00 50 1005.0
20260507182712 25 310 11.3 33.8 0.00 0.00 0.00 50 1004.9
20260507182506 25 320 9.7 35.4 0.00 0.00 0.00 50 1004.9
20260507182211 26 302 9.7 35.4 0.00 0.00 0.00 49 1004.9
20260507182005 26 305 9.7 35.4 0.00 0.00 0.00 48 1004.8
20260507181712 26 269 19.3 35.4 0.00 0.00 0.00 46 1004.9
20260507181506 26 284 20.9 35.4 0.00 0.00 0.00 47 1005.0
20260507181212 26 270 17.7 30.6 0.00 0.00 0.00 46 1005.3
20260507181006 26 268 8.0 30.6 0.00 0.00 0.00 45 1005.0
20260507180506 27 1 14.5 24.1 0.00 0.00 0.00 41 1005.1
20260507180211 27 351 11.3 24.1 0.00 0.00 0.00 41 1005.1
20260507180007 27 1 4.8 24.1 0.00 0.00 0.00 42 1005.0
20260507175712 27 328 14.5 24.1 0.00 0.00 0.00 42 1005.5
20260507175507 27 326 19.3 24.1 0.00 0.00 0.00 46 1005.3
20260507175212 26 313 11.3 24.1 0.00 0.00 0.00 47 1005.3
20260507175006 26 301 8.0 24.1 0.00 0.00 0.00 47 1005.2
20260507174711 27 284 6.4 24.1 0.00 0.00 0.00 47 1005.4
20260507174505 27 270 14.5 24.1 0.00 0.00 0.00 46 1005.5
20260507174213 27 233 11.3 24.1 0.00 0.00 0.00 47 1005.6
20260507174007 26 336 6.4 22.5 0.00 0.00 0.00 50 1005.4
20260507173506 26 332 4.8 22.5 0.00 0.00 0.00 50 1005.2
20260507173212 26 308 12.9 25.7 0.00 0.00 0.00 50 1005.3
20260507173006 26 298 9.7 25.7 0.00 0.00 0.00 50 1005.0
20260507172711 26 283 9.7 25.7 0.00 0.00 0.00 50 1005.2
20260507172505 26 285 8.0 25.7 0.00 0.00 0.00 50 1005.4
20260507172007 26 293 9.7 19.3 0.00 0.00 0.00 50 1005.5
20260507171713 26 307 4.8 19.3 0.00 0.00 0.00 50 1005.3
20260507171506 26 299 4.8 19.3 0.00 0.00 0.00 50 1005.5
20260507171211 26 296 14.5 19.3 0.00 0.00 0.00 49 1005.4
20260507171005 26 291 8.0 19.3 0.00 0.00 0.00 48 1005.4
20260507170711 26 293 11.3 19.3 0.00 0.00 0.00 47 1005.4
20260507170505 26 322 6.4 20.9 0.00 0.00 0.00 47 1005.4
20260507170212 26 350 6.4 20.9 0.00 0.00 0.00 47 1005.6
20260507170007 26 310 9.7 30.6 0.00 0.00 0.00 48 1005.6
20260507165506 26 288 14.5 30.6 0.00 0.00 0.00 47 1005.6
20260507165211 26 277 16.1 30.6 0.00 0.00 0.00 46 1005.6
20260507165006 26 308 8.0 38.6 0.00 0.00 0.00 48 1005.9
20260507164711 26 311 14.5 38.6 0.00 0.00 0.00 48 1005.8
20260507164507 26 312 9.7 38.6 0.00 0.00 0.00 47 1005.9
20260507164212 26 309 9.7 38.6 0.00 0.00 0.00 47 1005.7
20260507164007 26 294 14.5 25.7 0.00 0.00 0.00 48 1006.0
20260507163506 26 294 9.7 20.9 0.00 0.00 0.00 49 1006.1
20260507163212 26 281 9.7 24.1 0.00 0.00 0.00 50 1005.8
20260507163006 26 282 9.7 40.2 0.00 0.00 0.00 50 1006.1
20260507162711 26 273 9.7 40.2 0.00 0.00 0.00 49 1006.4
20260507162505 26 268 14.5 40.2 0.00 0.00 0.00 48 1006.1
20260507162212 26 276 9.7 40.2 0.00 0.00 0.00 49 1006.0
20260507162007 26 276 14.5 35.4 0.00 0.00 0.00 49 1006.2
20260507161714 26 263 14.5 40.2 0.00 0.00 0.00 48 1006.3
20260507161506 26 272 11.3 40.2 0.00 0.00 0.00 48 1006.4
20260507161211 26 277 12.9 40.2 0.00 0.00 0.00 46 1006.8
20260507161006 26 279 19.3 40.2 0.00 0.00 0.00 45 1006.7
20260507160507 27 296 14.5 29.0 0.00 0.00 0.00 43 1006.6
20260507160213 27 313 6.4 29.0 0.00 0.00 0.00 44 1006.5
20260507160006 27 307 4.8 29.0 0.00 0.00 0.00 44 1006.3
20260507155506 27 298 9.7 25.7 0.00 0.00 0.00 44 1006.7
20260507155212 27 282 14.5 27.4 0.00 0.00 0.00 50 1006.4
20260507155006 27 276 17.7 27.4 0.00 0.00 0.00 50 1006.5
20260507154507 27 281 14.5 30.6 0.00 0.00 0.00 51 1006.6
20260507154008 26 313 17.7 30.6 0.00 0.00 0.00 52 1006.5
20260507153506 26 317 9.7 27.4 0.00 0.00 0.00 54 1006.8
20260507153211 27 329 9.7 17.7 0.00 0.00 0.00 55 1006.9
20260507153005 27 331 9.7 19.3 0.00 0.00 0.00 55 1006.7
20260507152713 27 331 6.4 19.3 0.00 0.00 0.00 56 1006.9
20260507152507 27 328 8.0 19.3 0.00 0.00 0.00 56 1006.8
20260507152212 27 318 9.7 19.3 0.00 0.00 0.00 55 1007.0
20260507152006 27 292 4.8 20.9 0.00 0.00 0.00 55 1007.1
20260507151506 26 289 6.4 20.9 0.00 0.00 0.00 56 1007.3
20260507151212 26 285 11.3 27.4 0.00 0.00 0.00 55 1007.2
20260507151007 26 287 12.9 27.4 0.00 0.00 0.00 55 1007.6
20260507150507 26 289 9.7 29.0 0.00 0.00 0.00 56 1007.4
20260507150213 26 289 12.9 29.0 0.00 0.00 0.00 56 1007.4
20260507150006 26 311 9.7 29.0 0.00 0.00 0.00 57 1007.5
20260507145712 26 315 9.7 29.0 0.00 0.00 0.00 56 1007.6
20260507145506 26 321 19.3 29.0 0.00 0.00 0.00 56 1007.7
20260507145211 26 338 4.8 22.5 0.00 0.00 0.00 60 1007.9
20260507145005 26 308 4.8 22.5 0.00 0.00 0.00 60 1007.7
20260507144711 26 281 11.3 22.5 0.00 0.00 0.00 59 1007.7
20260507144507 26 270 9.7 19.3 0.00 0.00 0.00 60 1008.1
20260507144006 25 285 4.8 22.5 0.00 0.00 0.00 60 1008.2
20260507143712 25 314 9.7 22.5 0.00 0.00 0.00 61 1008.2
20260507143506 25 319 8.0 22.5 0.00 0.00 0.00 61 1008.6
20260507143212 25 331 19.3 22.5 0.00 0.00 0.00 61 1008.8
20260507143006 25 335 9.7 19.3 0.00 0.00 0.00 62 1008.6
20260507142711 24 309 9.7 19.3 0.00 0.00 0.00 63 1008.7
20260507142505 24 327 11.3 19.3 0.00 0.00 0.00 64 1008.7
20260507142212 23 339 9.7 24.1 0.00 0.00 0.00 64 1008.8
20260507142007 23 340 6.4 24.1 0.00 0.00 0.00 64 1009.0
20260507141713 23 358 9.7 24.1 0.00 0.00 0.00 64 1008.9
20260507141506 23 4 6.4 24.1 0.00 0.00 0.00 65 1009.2
20260507141211 23 338 4.8 16.1 0.00 0.00 0.00 66 1009.0
20260507141007 23 313 4.8 24.1 0.00 0.00 0.00 65 1008.9
20260507140711 23 281 6.4 24.1 0.00 0.00 0.00 66 1009.1
20260507140505 23 269 4.8 24.1 0.00 0.00 0.00 66 1009.0
20260507140213 23 236 8.0 24.1 0.00 0.00 0.00 65 1009.1
20260507140007 23 269 17.7 24.1 0.00 0.00 0.00 65 1009.4
20260507135712 23 243 4.8 19.3 0.00 0.00 0.00 65 1009.3
20260507135506 23 232 4.8 19.3 0.00 0.00 0.00 65 1009.5
20260507135211 23 251 11.3 17.7 0.00 0.00 0.00 65 1009.6
20260507135006 23 255 9.7 25.7 0.00 0.00 0.00 65 1009.8
20260507134507 23 281 8.0 25.7 0.00 0.00 0.00 66 1009.9
20260507134213 23 299 4.8 25.7 0.00 0.00 0.00 67 1009.8
20260507134007 22 318 11.3 19.3 0.00 0.00 0.00 67 1009.9
20260507133712 22 312 9.7 19.3 0.00 0.00 0.00 68 1010.0
20260507133506 22 338 6.4 16.1 0.00 0.00 0.00 69 1010.1
20260507133212 22 310 11.3 16.1 0.00 0.00 0.00 68 1010.2
20260507133005 22 292 8.0 16.1 0.00 0.00 0.00 69 1010.0
20260507132711 22 321 4.8 22.5 0.00 0.00 0.00 69 1010.1
20260507132507 22 312 3.2 22.5 0.00 0.00 0.00 69 1010.3
20260507132215 22 319 9.7 22.5 0.00 0.00 0.00 69 1010.1
20260507132007 22 321 4.8 22.5 0.00 0.00 0.00 70 1010.2
20260507131506 22 326 6.4 14.5 0.00 0.00 0.00 70 1010.3
20260507131005 22 298 8.0 17.7 0.00 0.00 0.00 70 1010.4
20260507130712 22 300 4.8 17.7 0.00 0.00 0.00 70 1010.3
20260507130507 22 299 6.4 20.9 0.00 0.00 0.00 70 1010.5
20260507130213 22 304 6.4 20.9 0.00 0.00 0.00 70 1010.3
20260507130006 22 319 9.7 20.9 0.00 0.00 0.00 70 1010.5
20260507125712 22 325 16.1 20.9 0.00 0.00 0.00 69 1010.3
20260507125506 22 322 4.8 12.9 0.00 0.00 0.00 70 1010.5
20260507125213 22 321 8.0 14.5 0.00 0.00 0.00 70 1010.5
20260507125006 22 309 6.4 14.5 0.00 0.00 0.00 70 1010.5
20260507124711 22 303 4.8 14.5 0.00 0.00 0.00 70 1010.7
20260507124507 22 308 9.7 14.5 0.00 0.00 0.00 70 1010.5
20260507124212 22 304 4.8 11.3 0.00 0.00 0.00 70 1010.6
20260507124006 22 302 6.4 11.3 0.00 0.00 0.00 73 1010.6
20260507123712 22 307 3.2 17.7 0.00 0.00 0.00 73 1010.6
20260507123506 22 303 6.4 17.7 0.00 0.00 0.00 73 1010.5
20260507123211 22 304 4.8 17.7 0.00 0.00 0.00 73 1010.7
20260507123007 21 301 8.0 17.7 0.00 0.00 0.00 73 1010.6
20260507122507 21 265 4.8 17.7 0.00 0.00 0.00 74 1010.8
20260507122212 21 272 4.8 17.7 0.00 0.00 0.00 74 1010.6
20260507122006 21 282 4.8 17.7 0.00 0.00 0.00 74 1010.8
20260507121506 21 297 4.8 14.5 0.00 0.00 0.00 74 1010.8
20260507121211 21 292 4.8 14.5 0.00 0.00 0.00 74 1011.0
20260507121005 21 295 4.8 11.3 0.00 0.00 0.00 74 1010.8
20260507120507 21 293 1.6 11.3 0.00 0.00 0.00 74 1010.9
20260507120212 21 301 6.4 11.3 0.00 0.00 0.00 74 1010.8
20260507120006 21 294 4.8 17.7 0.00 0.00 0.00 74 1010.8
20260507115712 21 309 4.8 17.7 0.00 0.00 0.00 74 1010.9
20260507115506 21 328 4.8 17.7 0.00 0.00 0.00 74 1010.9
20260507115211 21 272 6.4 17.7 0.00 0.00 0.00 74 1011.0
20260507115006 21 218 4.8 14.5 0.00 0.00 0.00 74 1010.9
20260507114714 21 247 6.4 14.5 0.00 0.00 0.00 74 1010.7
20260507114506 21 251 8.0 16.1 0.00 0.00 0.00 75 1010.6
20260507114212 21 274 4.8 16.1 0.00 0.00 0.00 75 1010.7
20260507114006 21 273 9.7 16.1 0.00 0.00 0.00 75 1010.7
20260507113712 21 277 8.0 16.1 0.00 0.00 0.00 75 1010.7
20260507113506 21 288 4.8 12.9 0.00 0.00 0.00 75 1010.8
20260507113211 21 306 6.4 14.5 0.00 0.00 0.00 75 1010.7
20260507113007 21 336 6.4 16.1 0.00 0.00 0.00 75 1010.7
20260507112712 21 315 4.8 16.1 0.00 0.00 0.00 75 1010.8
20260507112507 21 308 4.8 16.1 0.00 0.00 0.00 75 1010.6
20260507112212 21 291 9.7 16.1 0.00 0.00 0.00 75 1010.6
20260507112006 21 272 9.7 14.5 0.00 0.00 0.00 76 1010.6
20260507111714 21 268 3.2 12.9 0.00 0.00 0.00 76 1010.6
20260507111506 21 268 8.0 12.9 0.00 0.00 0.00 77 1010.6
20260507111213 21 282 9.7 12.9 0.00 0.00 0.00 77 1010.8
20260507111007 21 295 6.4 9.7 0.00 0.00 0.00 77 1010.8
20260507110712 20 295 1.6 9.7 0.00 0.00 0.00 78 1010.8
20260507110506 20 284 3.2 16.1 0.00 0.00 0.00 78 1010.9
20260507110212 20 278 4.8 16.1 0.00 0.00 0.00 78 1011.1
20260507110006 20 272 4.8 16.1 0.00 0.00 0.00 78 1011.0
20260507105711 20 264 4.8 16.1 0.00 0.00 0.00 78 1011.0
20260507105505 20 262 9.7 16.1 0.00 0.00 0.00 78 1011.1
20260507105213 20 257 4.8 11.3 0.00 0.00 0.00 78 1011.1
20260507105007 20 265 4.8 16.1 0.00 0.00 0.00 78 1010.9
20260507104506 20 287 4.8 16.1 0.00 0.00 0.00 78 1011.2
20260507104005 20 305 6.4 12.9 0.00 0.00 0.00 78 1011.0
20260507103507 20 276 3.2 16.1 0.00 0.00 0.00 77 1010.9
20260507103007 20 276 4.8 16.1 0.00 0.00 0.00 78 1010.9
20260507102506 20 283 3.2 16.1 0.00 0.00 0.00 78 1011.1
20260507102007 20 271 9.7 19.3 0.00 0.00 0.00 78 1010.9
20260507101507 20 282 9.7 19.3 0.00 0.00 0.00 78 1011.1
20260507101006 20 300 6.4 16.1 0.00 0.00 0.00 79 1011.1
20260507100506 20 299 9.7 14.5 0.00 0.00 0.00 80 1011.0
20260507100005 20 271 11.3 14.5 0.00 0.00 0.00 80 1011.0
20260507095507 20 275 9.7 14.5 0.00 0.00 0.00 80 1010.7
20260507095006 20 285 4.8 19.3 0.00 0.00 0.00 80 1010.8
20260507094506 20 281 6.4 19.3 0.00 0.00 0.00 80 1011.0
20260507094005 20 285 14.5 19.3 0.00 0.00 0.00 80 1011.0
20260507093507 20 288 4.8 11.3 0.00 0.00 0.00 80 1011.0
20260507093006 20 273 8.0 14.5 0.00 0.00 0.00 80 1010.8
20260507092506 20 265 4.8 17.7 0.00 0.00 0.00 79 1011.0
20260507092006 20 276 6.4 17.7 0.00 0.00 0.00 79 1011.0
20260507091507 20 270 11.3 17.7 0.00 0.00 0.00 79 1011.0
20260507091006 20 290 6.4 14.5 0.00 0.00 0.00 79 1011.3
20260507090507 20 323 4.8 19.3 0.00 0.00 0.00 78 1011.2
20260507090006 20 274 4.8 19.3 0.00 0.00 0.00 78 1011.0
20260507085508 20 295 9.7 17.7 0.00 0.00 0.00 78 1010.9
20260507085007 21 308 4.8 16.1 0.00 0.00 0.00 78 1011.1
20260507084506 21 290 8.0 16.1 0.00 0.00 0.00 78 1011.0
20260507084006 21 230 1.6 14.5 0.00 0.00 0.00 77 1011.0
20260507083507 21 246 6.4 14.5 0.00 0.00 0.00 77 1010.9
20260507083006 21 270 9.7 12.9 0.00 0.00 0.00 77 1011.0
20260507082506 21 270 4.8 14.5 0.00 0.00 0.00 77 1011.0
20260507082006 21 197 4.8 14.5 0.00 0.00 0.00 77 1011.1
20260507081507 21 196 4.8 9.7 0.00 0.00 0.00 76 1010.9
20260507081007 21 285 4.8 9.7 0.00 0.00 0.00 76 1010.8
20260507080506 21 295 3.2 9.7 0.00 0.00 0.00 76 1011.0
20260507080007 21 272 8.0 12.9 0.00 0.00 0.00 76 1010.8
20260507075506 21 272 4.8 20.9 0.00 0.00 0.00 76 1010.9
20260507075006 21 264 9.7 20.9 0.00 0.00 0.00 77 1010.9
20260507074505 21 274 9.7 14.5 0.00 0.00 0.00 77 1011.0
20260507074007 21 295 4.8 17.7 0.00 0.00 0.00 77 1011.0
20260507073507 21 280 4.8 17.7 0.00 0.00 0.00 77 1011.2
20260507073006 21 272 8.0 12.9 0.00 0.00 0.00 77 1011.3
20260507072506 21 295 6.4 12.9 0.00 0.00 0.00 78 1011.4
20260507072006 21 274 8.0 14.5 0.00 0.00 0.00 78 1011.5
20260507071507 21 258 3.2 17.7 0.00 0.00 0.00 78 1011.4
20260507071006 21 274 4.8 17.7 0.00 0.00 0.00 78 1011.4
20260507070506 20 306 4.8 14.5 0.00 0.00 0.00 78 1011.6
20260507070010 20 302 1.6 14.5 0.00 0.00 0.00 78 1011.6
20260507065507 20 284 4.8 19.3 0.00 0.00 0.00 77 1011.6
20260507065007 20 296 4.8 19.3 0.00 0.00 0.00 77 1011.7
20260507064506 20 338 4.8 14.5 0.00 0.00 0.00 77 1011.7
20260507064006 20 283 0.0 14.5 0.00 0.00 0.00 77 1011.9
20260507063507 20 283 8.0 12.9 0.00 0.00 0.00 77 1011.9
20260507063007 20 243 6.4 16.1 0.00 0.00 0.00 77 1012.0
20260507062506 20 250 3.2 16.1 0.00 0.00 0.00 77 1012.1
20260507062006 20 272 4.8 12.9 0.00 0.00 0.00 78 1012.1
20260507061507 20 268 3.2 12.9 0.00 0.00 0.00 78 1012.2
20260507061007 20 296 9.7 12.9 0.00 0.00 0.00 78 1012.3
20260507060507 20 292 3.2 8.0 0.00 0.00 0.00 78 1012.4
20260507060006 20 262 4.8 8.0 0.00 0.00 0.00 78 1012.6
20260507055506 20 268 3.2 9.7 0.00 0.00 0.00 78 1012.6
20260507055005 20 264 1.6 9.7 0.00 0.00 0.00 78 1012.8
20260507054507 20 283 3.2 6.4 0.00 0.00 0.00 78 1012.7
20260507054006 20 314 3.2 9.7 0.00 0.00 0.00 78 1012.8
20260507053506 20 285 3.2 9.7 0.00 0.00 0.00 78 1012.8
20260507053005 20 256 3.2 9.7 0.00 0.00 0.00 78 1012.9
20260507052507 20 252 3.2 9.7 0.00 0.00 0.00 78 1013.4
20260507052007 20 264 6.4 9.7 0.00 0.00 0.00 79 1013.2
20260507051506 20 282 3.2 9.7 0.00 0.00 0.00 78 1013.1
20260507051006 20 271 1.6 11.3 0.00 0.00 0.00 78 1013.4
20260507050505 20 249 3.2 11.3 0.00 0.00 0.00 78 1013.3
20260507050007 20 266 1.6 9.7 0.00 0.00 0.00 78 1013.5
20260507045507 20 151 6.4 9.7 0.00 0.00 0.00 79 1013.5
20260507045006 20 168 3.2 9.7 0.00 0.00 0.00 78 1013.7
20260507044505 20 233 4.8 8.0 0.00 0.00 0.00 78 1013.7
20260507044007 20 127 1.6 4.8 0.00 0.00 0.00 78 1013.9
20260507043507 20 338 0.0 9.7 0.00 0.00 0.00 77 1014.0
20260507043006 20 340 3.2 12.9 0.00 0.00 0.00 77 1014.1
20260507042506 21 324 8.0 12.9 0.00 0.00 0.00 77 1014.1
20260507042006 21 174 1.6 9.7 0.00 0.00 0.00 77 1014.2
20260507041507 21 141 1.6 9.7 0.00 0.00 0.00 77 1014.0
20260507041006 20 115 1.6 12.9 0.00 0.00 0.00 77 1014.5
20260507040506 21 193 4.8 12.9 0.00 0.00 0.00 78 1014.3
20260507040006 20 191 1.6 8.0 0.00 0.00 0.00 78 1014.3
20260507035507 20 174 4.8 6.4 0.00 0.00 0.00 78 1014.6
20260507035007 20 215 1.6 6.4 0.00 0.00 0.00 78 1014.4
20260507034506 20 211 1.6 6.4 0.00 0.00 0.00 79 1014.3
20260507034006 20 170 1.6 6.4 0.00 0.00 0.00 79 1014.6
20260507033506 20 151 1.6 6.4 0.00 0.00 0.00 79 1014.4
20260507033007 20 173 3.2 8.0 0.00 0.00 0.00 79 1014.7
20260507032507 20 193 4.8 8.0 0.00 0.00 0.00 78 1014.6
20260507032007 20 137 1.6 6.4 0.00 0.00 0.00 77 1014.7
20260507031506 20 126 0.0 9.7 0.00 0.00 0.00 77 1015.0
20260507031007 20 126 3.2 9.7 0.00 0.00 0.00 77 1014.9
20260507030507 20 136 3.2 12.9 0.00 0.00 0.00 76 1015.0
20260507030006 20 137 3.2 12.9 0.00 0.00 0.00 76 1014.9
20260507025506 20 119 4.8 11.3 0.00 0.00 0.00 76 1014.9
20260507025006 20 128 4.8 16.1 0.00 0.00 0.00 76 1015.0
20260507024507 21 129 6.4 16.1 0.00 0.00 0.00 75 1015.2
20260507024007 21 126 6.4 12.9 0.00 0.00 0.00 75 1015.4
20260507023506 21 138 4.8 12.9 0.00 0.00 0.00 75 1015.2
20260507023006 21 142 4.8 12.9 0.00 0.00 0.00 74 1015.3
20260507022505 21 145 6.4 12.9 0.00 0.00 0.00 74 1015.5
20260507022007 21 146 4.8 12.9 0.00 0.00 0.00 74 1015.5
20260507021506 21 154 4.8 12.9 0.00 0.00 0.00 73 1015.4
20260507021006 21 149 9.7 12.9 0.00 0.00 0.00 74 1015.6
20260507020506 21 139 8.0 9.7 0.00 0.00 0.00 74 1015.4
20260507020007 21 130 4.8 9.7 0.00 0.00 0.00 74 1015.7
20260507015507 21 111 4.8 9.7 0.00 0.00 0.00 74 1015.7
20260507015006 21 105 3.2 6.4 0.00 0.00 0.00 74 1015.7
20260507014506 21 142 4.8 6.4 0.00 0.00 0.00 75 1015.7
20260507014007 21 170 0.0 6.4 0.00 0.00 0.00 74 1015.7
20260507013507 21 161 4.8 6.4 0.00 0.00 0.00 74 1015.7
20260507013006 21 145 0.0 4.8 0.00 0.00 0.00 73 1015.6
20260507012506 21 142 0.0 4.8 0.00 0.00 0.00 73 1015.7
20260507012007 21 139 1.6 6.4 0.00 0.00 0.00 73 1015.8
20260507011507 21 139 3.2 6.4 0.00 0.00 0.00 74 1015.8
20260507011006 21 142 4.8 6.4 0.00 0.00 0.00 74 1015.8
20260507010506 21 128 4.8 6.4 0.00 0.00 0.00 76 1015.7
20260507010006 21 111 1.6 4.8 0.00 0.00 0.00 76 1015.7
20260507005507 20 123 3.2 4.8 0.00 0.00 0.00 76 1015.8
20260507005213 21 136 0.0 3.2 0.00 0.00 0.00 76 1015.8
20260507005007 21 189 1.6 4.8 0.00 0.00 0.00 76 1015.7
20260507004713 21 248 0.0 6.4 0.00 0.00 0.00 76 1015.8
20260507004506 21 223 1.6 6.4 0.00 0.00 0.00 76 1015.9
20260507004006 20 239 0.0 6.4 0.00 0.00 0.00 78 1016.0
20260507003713 20 206 1.6 4.8 0.00 0.00 0.00 79 1016.0
20260507003507 20 193 0.0 4.8 0.00 0.00 0.00 79 1016.1
20260507003212 20 162 0.0 3.2 0.00 0.00 0.00 80 1015.9
20260507003007 20 147 1.6 4.8 0.00 0.00 0.00 80 1016.0
20260507002712 20 133 3.2 4.8 0.00 0.00 0.00 80 1016.0
20260507002506 20 99 0.0 4.8 0.00 0.00 0.00 80 1016.2
20260507002212 20 124 0.0 4.8 0.00 0.00 0.00 80 1016.2
20260507002006 20 92 1.6 3.2 0.00 0.00 0.00 79 1016.1
20260507001507 20 88 1.6 3.2 0.00 0.00 0.00 78 1016.1
20260507001212 20 97 0.0 4.8 0.00 0.00 0.00 78 1016.1
20260507001007 20 126 0.0 4.8 0.00 0.00 0.00 78 1015.9
20260507000712 20 141 1.6 4.8 0.00 0.00 0.00 79 1016.1
20260507000506 20 139 1.6 4.8 0.00 0.00 0.00 79 1016.1
20260507000212 20 129 4.8 4.8 0.00 0.00 0.00 79 1016.1
20260507000006 20 83 1.6 3.2 0.00 0.00 0.00 79 1016.1
20260506235506 20 74 0.0 3.2 0.00 0.00 0.00 77 1016.0
20260506235213 20 74 0.0 3.2 0.00 0.00 0.00 76 1016.1
20260506235007 20 78 0.0 3.2 0.00 0.00 0.00 76 1015.9
20260506234714 21 129 0.0 3.2 0.00 0.00 0.00 74 1016.1
20260506234507 21 157 0.0 4.8 0.00 0.00 0.00 74 1016.0
20260506234006 21 150 0.0 4.8 0.00 0.00 0.00 73 1016.1
20260506233711 21 156 1.6 6.4 0.00 0.00 0.00 73 1016.1
20260506233506 21 153 3.2 6.4 0.00 0.00 0.00 73 1016.3
20260506233211 21 157 1.6 8.0 0.00 0.00 0.00 73 1016.0
20260506233007 21 155 3.2 8.0 0.00 0.00 0.00 73 1016.1
20260506232714 21 153 4.8 8.0 0.00 0.00 0.00 74 1016.0
20260506232507 21 141 4.8 8.0 0.00 0.00 0.00 74 1016.0
20260506232212 21 140 0.0 4.8 0.00 0.00 0.00 75 1016.0
20260506232007 21 135 4.8 4.8 0.00 0.00 0.00 75 1016.1
20260506231712 21 112 0.0 3.2 0.00 0.00 0.00 76 1016.1
20260506231506 21 137 0.0 3.2 0.00 0.00 0.00 76 1015.9
20260506231212 21 134 0.0 3.2 0.00 0.00 0.00 76 1016.0
20260506231006 21 142 0.0 3.2 0.00 0.00 0.00 76 1016.1
20260506230712 21 145 0.0 3.2 0.00 0.00 0.00 75 1016.1
20260506230506 21 138 0.0 3.2 0.00 0.00 0.00 75 1016.0
20260506230211 21 114 0.0 3.2 0.00 0.00 0.00 74 1016.0
20260506230006 21 107 0.0 3.2 0.00 0.00 0.00 74 1016.0
20260506225713 21 111 0.0 3.2 0.00 0.00 0.00 74 1016.0
20260506225507 21 121 0.0 3.2 0.00 0.00 0.00 73 1015.8
20260506225212 21 161 0.0 3.2 0.00 0.00 0.00 73 1016.0
20260506225007 21 176 0.0 3.2 0.00 0.00 0.00 73 1016.0
20260506224506 21 155 1.6 3.2 0.00 0.00 0.00 73 1016.0
20260506224211 22 104 0.0 4.8 0.00 0.00 0.00 73 1016.1
20260506224006 22 145 0.0 4.8 0.00 0.00 0.00 73 1016.1
20260506223507 22 194 0.0 4.8 0.00 0.00 0.00 72 1016.0
20260506223213 22 222 3.2 4.8 0.00 0.00 0.00 72 1016.0
20260506223007 22 272 1.6 3.2 0.00 0.00 0.00 72 1016.2
20260506222714 22 227 0.0 1.6 0.00 0.00 0.00 72 1016.1
20260506222506 22 184 0.0 1.6 0.00 0.00 0.00 71 1016.3
20260506222212 22 157 0.0 3.2 0.00 0.00 0.00 71 1016.2
20260506222006 22 159 0.0 3.2 0.00 0.00 0.00 72 1016.3
20260506221711 22 165 0.0 4.8 0.00 0.00 0.00 71 1016.0
20260506221507 22 169 0.0 4.8 0.00 0.00 0.00 71 1016.3
20260506221213 22 173 0.0 4.8 0.00 0.00 0.00 71 1016.0
20260506221007 22 175 1.6 4.8 0.00 0.00 0.00 71 1016.0
20260506220712 22 202 0.0 3.2 0.00 0.00 0.00 71 1016.0
20260506220506 22 241 0.0 3.2 0.00 0.00 0.00 68 1016.1
20260506220213 22 270 0.0 3.2 0.00 0.00 0.00 68 1016.2
20260506220006 22 239 0.0 3.2 0.00 0.00 0.00 67 1016.1
20260506215711 22 227 0.0 3.2 0.00 0.00 0.00 67 1016.1
20260506215507 22 222 3.2 3.2 0.00 0.00 0.00 66 1016.2
20260506215213 22 218 1.6 3.2 0.00 0.00 0.00 66 1016.1
20260506215007 22 228 0.0 1.6 0.00 0.00 0.00 66 1016.1
20260506214506 23 204 0.0 3.2 0.00 0.00 0.00 65 1016.1
20260506214212 23 212 0.0 3.2 0.00 0.00 0.00 65 1016.0
20260506214006 23 213 0.0 3.2 0.00 0.00 0.00 64 1016.1
20260506213507 23 197 1.6 3.2 0.00 0.00 0.00 64 1015.9
20260506213007 23 188 0.0 3.2 0.00 0.00 0.00 64 1016.1
20260506212506 23 204 1.6 3.2 0.00 0.00 0.00 64 1016.2
20260506212006 23 220 0.0 3.2 0.00 0.00 0.00 64 1016.0
20260506211711 23 222 0.0 3.2 0.00 0.00 0.00 64 1016.1
20260506211507 23 230 0.0 3.2 0.00 0.00 0.00 64 1016.0
20260506211213 23 233 0.0 3.2 0.00 0.00 0.00 64 1016.0
20260506211007 23 223 0.0 1.6 0.00 0.00 0.00 63 1016.1
20260506210712 23 226 0.0 3.2 0.00 0.00 0.00 63 1016.0
20260506210507 23 236 0.0 3.2 0.00 0.00 0.00 63 1016.1
20260506210212 23 247 0.0 3.2 0.00 0.00 0.00 63 1015.9
20260506210006 23 238 1.6 3.2 0.00 0.00 0.00 63 1016.0
20260506205711 23 244 1.6 3.2 0.00 0.00 0.00 63 1015.9
20260506205506 23 219 0.0 3.2 0.00 0.00 0.00 63 1015.9
20260506205213 23 213 0.0 3.2 0.00 0.00 0.00 63 1015.8
20260506205007 24 224 0.0 1.6 0.00 0.00 0.00 62 1016.1
20260506204716 24 229 0.0 1.6 0.00 0.00 0.00 62 1015.9
20260506204507 24 234 0.0 1.6 0.00 0.00 0.00 62 1016.0
20260506204212 24 231 0.0 1.6 0.00 0.00 0.00 62 1016.0
20260506204006 24 227 0.0 1.6 0.00 0.00 0.00 61 1015.9